SCP
0 0 0 0 0 1 2 3 4 2 1 2 1 0 1 1 1 1 1 0 0 0 0 0 0 0 0 0 0 0 -0 -0 -0 -0 -0 -0 -0 -0 -0 -0 -0 -0 -0
0 0 0 0 0 0 0 1 2 3 2 1 1 1 1 1 1 1 1 1 0 0 0 0 0 0 0 0 0 0 0 0 -0 -0 -0 -0 -0 -0 -0 -0 -0 -0 -0
0 0 0 0 0 0 0 0 0 1 2 2 1 1 1 1 1 1 1 1 1 0 0 0 0 0 0 0 0 0 0 0 0 0 -0 0 0 -0 -0 -0 -0 -0 -0
0 0 0 0 0 0 0 0 0 0 1 2 2 1 1 1 1 1 1 1 1 1 0 0 0 0 0 0 0 0 0 0 0 0 0 0 0 -0 -0 -0 -0 -0 -0
0 0 0 0 0 0 0 0 0 0 0 0 0 2 1 1 1 1 1 1 1 1 1 0 0 0 0 0 0 0 0 0 0 0 0 0 0 -0 -0 -0 -0 -0 -0
0 0 0 0 0 0 0 0 0 0 0 0 0 0 1 1 1 0 1 1 1 1 1 1 0 0 0 0 0 0 0 0 0 0 0 0 0 -0 -0 -0 -0 -0 -0
0 0 0 0 0 0 0 0 0 0 0 0 0 0 0 1 1 0 1 1 1 1 1 1 1 0 0 0 0 0 0 0 0 0 0 0 0 0 -0 -0 -0 -0 -0
0 0 0 0 0 0 0 0 0 0 0 0 0 0 0 0 0 1 0 1 1 1 1 1 1 1 0 0 0 0 0 0 0 0 0 0 0 0 -0 -0 -0 -0 -0
0 0 0 0 0 0 0 0 0 0 0 0 0 0 0 0 0 0 0 0 1 1 1 1 1 1 0 0 0 0 0 0 0 0 0 0 0 0 0 -0 0 -0 0
0 0 0 0 0 0 -0 0 0 0 0 0 0 0 0 0 0 0 0 0 0 1 1 1 1 1 0 0 0 0 0 0 0 0 0 0 0 0 0 0 0 0 0
0 0 0 0 0 -0 -0 -0 -0 0 0 0 0 0 0 0 0 0 0 0 0 0 1 1 1 1 0 0 0 0 0 0 0 0 0 0 0 0 0 0 0 0 0
0 -0 -0 -0 -0 -0 -0 -0 -0 -0 -0 -0 0 0 0 0 0 0 0 0 0 0 0 0 1 0 0 0 0 0 0 0 0 0 0 0 0 0 0 0 0 0 0
-0 -0 -0 -0 -0 -0 -0 -0 -0 -0 -0 -0 -0 -0 -0 -0 0 0 0 0 0 0 0 0 1 1 0 1 0 0 0 0 0 0 0 0 0 0 0 0 0 0 0
-0 -0 -0 -0 -0 -0 -0 -0 -0 -0 -0 -0 -0 -0 -0 -0 -0 0 0 0 0 0 0 1 1 1 0 1 0 0 0 0 0 0 0 0 0 0 0 0 0 0 0
0 0 -0 -0 -0 -0 -0 -0 -0 -0 -0 -0 -0 -0 -0 -0 -0 0 0 0 0 0 0 0 1 1 0 1 0 0 0 0 0 0 0 0 0 0 0 0 0 0 0
0 0 0 0 0 -0 -0 -0 -0 -0 -0 -0 -0 -0 0 -0 0 0 0 0 0 0 0 0 1 1 1 0 0 0 0 0 0 0 0 0 0 0 0 0 0 0 0
0 -0 -0 0 0 0 0 0 0 0 0 0 0 -0 0 0 0 0 0 0 0 0 0 0 0 1 1 1 0 0 0 0 0 0 0 0 0 0 0 0 0 0 0
0 0 0 0 0 0 0 0 0 0 0 0 0 0 0 0 0 0 0 0 0 0 0 0 0 1 0 0 0 0 0 0 0 0 0 0 0 0 0 0 0 0 0
0 0 0 0 0 0 0 0 0 0 -0 -0 -0 -0 0 0 0 0 0 0 0 0 0 0 0 0 0 0 0 0 0 0 0 0 0 0 0 0 0 0 0 0 0
0 0 0 0 0 0 0 0 0 -0 -0 -0 -0 -0 -0 0 0 0 0 0 0 0 0 0 0 0 0 1 0 0 0 0 0 0 0 0 0 0 0 0 0 0 0
0 0 0 0 0 0 0 -0 -0 -0 -0 -0 -0 -0 0 0 0 0 0 0 0 0 0 0 0 -0 0 1 0 0 0 0 0 0 0 0 0 0 0 0 0 0 0
0 0 0 0 0 -0 -0 -0 -0 -0 -0 -0 -0 -0 -0 0 0 0 0 0 0 0 0 0 0 0 0 0 0 0 0 0 0 0 0 0 0 0 0 0 0 0 0
-0 -0 -0 -0 -0 -0 -0 -0 -0 -0 -0 -0 -0 -0 -0 0 0 0 0 0 0 0 0 0 0 0 0 -0 0 0 0 0 0 0 0 0 0 0 0 0 0 0 0
-0 -0 -0 0 0 0 0 0 0 -0 -0 -0 -0 -0 -0 -0 0 0 0 0 0 0 0 0 0 0 0 0 0 0 0 0 0 0 0 0 0 0 0 0 0 0 0
-0 -0 0 0 0 0 0 0 0 0 0 -0 -0 -0 -0 -0 0 0 0 0 0 0 0 0 0 0 0 0 0 0 0 0 0 0 0 0 0 0 0 0 0 0 0
-0 -0 0 0 0 0 0 0 0 0 0 0 0 -0 -0 -0 -0 0 0 0 0 0 0 0 0 0 0 0 0 0 0 0 0 0 0 0 0 0 0 0 0 0 0
Wind_Speed_500mb
15 9 11 13 15 20 21 25 36 36 33 27 27 36 39 43 47 45 42 42 39 33 29 35 41 39 33 29 30 30 36 38 34 30 32 31 32 27 27 36 37 38 40
19 11 8 7 10 16 17 18 30 36 29 30 28 32 38 41 47 48 47 46 44 39 35 38 43 42 36 33 33 28 33 30 31 28 28 24 28 33 34 39 39 39 39
24 18 9 8 9 10 17 23 29 36 38 29 26 30 37 41 45 49 50 50 48 44 41 42 45 43 39 36 33 31 30 30 31 31 30 29 33 39 43 42 40 40 39
31 25 12 10 11 12 11 17 25 32 37 37 35 31 32 41 45 49 52 53 52 49 47 46 47 45 41 39 37 35 32 33 32 32 33 40 44 45 45 43 40 41 39
27 25 18 9 7 12 16 12 17 26 29 38 42 40 37 38 43 48 53 54 54 53 51 51 49 46 44 41 39 38 36 34 34 34 39 44 47 48 47 43 42 41 41
20 21 23 19 11 6 7 12 13 13 24 25 37 39 39 40 42 46 53 57 57 56 55 54 50 47 45 42 39 39 40 39 38 39 39 43 47 47 44 45 44 41 44
14 16 19 23 23 16 10 5 2 7 8 16 22 33 43 43 45 48 52 56 60 60 60 57 53 48 47 44 41 41 43 42 44 43 42 45 45 45 45 46 47 44 42
18 19 21 23 23 21 19 15 15 12 5 4 21 32 42 48 49 50 56 59 62 64 65 61 57 52 51 47 45 44 46 46 48 46 44 46 45 45 43 49 48 45 42
27 26 24 29 33 33 31 28 26 25 23 19 16 21 36 46 54 56 60 64 65 68 70 66 62 57 55 52 49 48 51 52 50 47 44 42 47 45 47 48 48 46 43
41 39 42 43 43 44 45 42 39 37 36 33 33 31 29 38 52 58 65 69 70 70 73 71 67 63 59 57 54 52 56 57 53 49 47 37 48 47 47 50 49 47 44
57 57 57 58 56 53 52 51 51 46 47 45 44 42 41 41 39 55 65 69 75 76 76 76 75 70 64 61 59 57 61 67 61 55 53 41 46 50 50 52 50 47 45
60 52 47 52 51 47 47 46 48 48 46 49 49 49 48 48 47 46 62 75 76 81 81 80 80 77 71 67 64 62 68 76 65 61 57 49 48 49 48 52 52 50 47
49 36 36 39 39 40 42 47 48 48 49 45 50 51 53 52 53 50 51 60 71 81 87 85 83 85 81 75 72 73 76 82 74 66 61 57 53 52 52 50 52 51 49
54 56 51 42 38 45 49 48 52 50 48 50 46 49 54 55 54 53 50 49 51 68 85 96 92 91 88 83 77 78 80 87 81 74 67 60 61 58 57 57 56 54 52
52 49 42 40 41 43 50 48 49 49 50 54 54 48 51 56 55 56 53 56 57 60 70 91 97 98 91 90 86 84 85 86 91 81 72 65 65 62 61 57 57 56 53
49 44 45 49 52 52 57 61 62 61 61 60 61 54 52 55 56 55 56 57 66 64 53 78 103 103 98 96 95 91 89 88 96 87 78 74 70 63 63 66 64 62 56
50 49 50 52 54 60 61 60 65 66 67 68 67 61 53 53 55 53 57 61 67 76 60 40 86 108 104 98 101 99 98 94 101 97 84 81 75 68 69 76 72 67 60
57 55 48 50 53 57 60 60 62 65 66 70 70 68 65 62 63 62 60 61 62 68 80 54 66 113 113 106 103 107 106 102 101 106 92 88 80 72 72 67 63 66 61
50 33 29 26 28 38 48 54 58 62 68 73 76 76 74 67 61 62 66 65 61 62 64 69 45 102 109 110 106 108 111 111 105 109 105 95 89 80 79 77 69 64 63
4 14 21 27 33 37 41 48 57 65 74 75 72 66 67 69 67 65 66 69 69 67 63 58 75 67 107 118 103 103 105 108 111 113 113 104 97 88 82 82 77 67 65
12 21 30 40 47 51 54 56 62 69 73 76 75 74 70 68 66 65 64 69 72 75 69 62 68 88 87 120 95 92 102 103 115 119 119 113 102 96 86 81 80 79 70
46 51 50 52 55 59 61 64 68 76 83 87 87 85 77 72 70 65 60 66 72 74 70 69 60 66 86 83 97 90 76 86 92 125 128 119 108 102 95 87 81 81 76
57 61 64 65 67 68 67 69 72 75 83 90 93 94 91 82 76 76 74 63 62 65 68 61 66 59 64 56 31 58 36 29 58 94 125 122 113 108 101 92 87 84 79
64 65 65 67 68 70 67 67 69 71 78 85 82 85 84 79 83 84 84 78 73 67 67 62 59 69 56 55 76 44 27 17 36 35 98 117 114 110 108 99 93 90 81
60 62 63 62 63 64 65 65 70 77 80 78 81 84 85 85 85 85 85 83 81 80 78 71 60 57 72 75 83 106 63 50 60 51 58 88 111 117 113 110 99 95 85
66 65 64 63 64 62 62 65 69 75 77 76 84 83 84 78 85 85 87 85 77 76 78 73 70 64 64 69 78 90 92 74 48 49 60 82 86 84 99 102 104 95 82
Wind_Direction_500mb
197 217 222 217 223 231 243 230 209 203 201 196 196 200 204 204 204 207 211 216 220 218 202 193 187 178 186 174 173 180 169 170 172 175 169 170 175 181 172 166 158 150 148
195 205 185 182 178 206 224 225 213 200 208 211 203 202 205 208 208 209 212 216 219 221 213 201 195 190 189 182 181 183 185 183 175 179 178 183 187 184 174 168 162 155 152
199 197 176 145 150 166 202 201 199 206 202 214 224 215 208 209 213 213 214 216 219 220 217 207 202 198 194 193 186 191 197 197 191 190 196 189 183 179 168 166 161 155 151
204 204 195 151 126 118 152 202 204 204 208 207 211 221 225 214 216 218 217 217 218 218 215 211 206 203 199 199 198 198 203 207 204 197 196 181 173 171 169 166 163 162 154
207 205 208 202 157 119 117 155 206 213 212 214 210 212 221 225 222 221 221 219 219 217 214 211 211 206 202 204 202 203 199 203 196 186 179 177 173 171 171 169 168 166 159
204 209 219 214 214 189 124 118 128 199 220 226 226 218 219 223 227 230 225 222 219 217 215 212 212 208 204 206 203 197 192 188 188 186 185 181 178 171 173 172 170 167 165
250 246 248 230 217 217 221 248 180 128 181 217 226 227 229 228 228 231 232 226 221 218 216 214 213 210 206 206 201 194 189 187 186 187 184 181 178 175 176 176 174 175 173
292 284 286 283 275 254 244 262 271 268 250 222 230 233 231 233 235 230 231 230 226 220 217 217 214 212 208 207 202 195 191 187 180 180 180 183 183 181 181 178 179 180 180
310 302 300 302 300 294 283 284 284 281 271 275 273 250 249 241 236 237 232 230 229 225 221 218 218 214 210 207 205 198 192 187 184 182 176 185 187 184 183 180 182 183 184
309 310 306 303 302 303 301 289 283 283 283 279 282 276 263 254 247 239 237 233 228 229 225 222 219 219 213 208 205 200 194 189 188 189 184 190 196 190 190 186 185 183 185
298 300 299 299 298 298 298 299 295 286 284 282 283 282 274 268 258 249 240 237 231 228 229 225 223 221 219 213 206 201 194 192 192 196 190 192 195 196 195 190 188 188 188
299 300 298 296 297 296 295 296 297 297 288 287 283 281 276 269 265 264 243 237 235 229 227 228 225 223 221 215 207 202 199 194 195 194 194 196 201 196 195 195 193 192 191
299 293 296 297 290 292 298 293 293 293 296 286 282 279 276 269 264 261 263 247 244 233 224 225 227 225 220 218 210 203 202 197 198 198 198 201 204 201 198 194 191 187 187
290 293 289 282 287 292 296 294 293 291 290 291 280 275 273 268 261 258 258 252 239 243 227 221 222 226 221 220 216 209 205 200 200 203 202 205 207 204 200 199 196 195 196
290 289 283 281 290 292 294 293 290 293 290 291 286 275 272 269 264 257 250 246 236 237 248 219 222 223 221 221 219 215 210 205 203 205 203 206 204 203 205 198 197 198 199
294 291 290 288 287 287 287 285 287 288 284 285 289 282 274 270 267 259 251 247 243 237 234 240 224 222 221 219 221 217 214 208 204 206 204 204 208 207 208 202 200 201 198
287 284 285 282 281 285 281 279 277 277 279 283 284 283 271 270 266 263 257 246 243 240 241 234 233 226 224 219 223 218 216 211 206 208 205 205 209 220 212 211 205 206 207
283 283 272 268 267 267 268 265 266 269 273 278 279 277 277 273 268 265 258 252 245 247 250 245 235 225 224 219 220 223 218 213 211 210 209 207 210 215 211 209 200 203 205
271 257 245 254 259 251 250 256 260 264 268 272 272 272 274 272 268 266 259 252 250 249 252 260 239 220 219 220 219 225 221 217 212 212 210 210 210 213 209 209 209 208 208
217 269 294 299 300 296 284 272 268 266 267 270 269 268 268 268 265 265 262 254 249 250 248 254 235 233 222 220 215 221 229 224 214 214 211 212 211 212 216 215 218 218 216
356 326 312 303 299 296 293 288 279 275 270 268 267 268 265 264 263 263 261 255 249 250 250 249 254 243 219 216 205 205 214 223 225 214 212 212 211 211 216 218 220 219 217
322 319 311 304 297 292 288 283 279 277 273 271 269 267 264 261 259 257 259 257 251 250 251 250 253 258 235 212 200 207 200 203 206 215 213 210 212 211 213 220 221 218 218
319 315 308 302 295 290 285 282 279 276 272 270 267 267 265 260 254 252 251 252 253 248 249 252 241 247 255 250 214 201 186 193 194 197 205 208 211 213 213 218 219 217 217
313 308 303 297 291 286 283 279 275 273 272 269 271 269 266 262 256 251 250 249 248 248 245 246 244 237 243 236 228 244 184 235 180 182 191 206 212 212 217 213 219 213 214
324 318 312 304 296 290 284 277 273 269 268 269 269 268 266 263 256 249 248 248 247 246 247 245 243 238 243 239 214 217 231 240 221 202 176 192 204 210 210 214 216 212 206
323 320 316 309 302 296 288 280 272 267 266 264 263 262 261 261 261 254 247 243 244 243 243 243 241 237 240 242 237 224 226 223 229 199 189 188 194 198 208 207 212 208 202
Wind_Speed_850mb
15 9 11 13 15 20 21 25 36 36 33 27 27 36 39 43 47 45 42 42 39 33 29 35 41 39 33 29 30 30 36 38 34 30 32 31 32 27 27 36 37 38 40
19 11 8 7 10 16 17 18 30 36 29 30 28 32 38 41 47 48 47 46 44 39 35 38 43 42 36 33 33 28 33 30 31 28 28 24 28 33 34 39 39 39 39
24 18 9 8 9 10 17 23 29 36 38 29 26 30 37 41 45 49 50 50 48 44 41 42 45 43 39 36 33 31 30 30 31 31 30 29 33 39 43 42 40 40 39
31 25 12 10 11 12 11 17 25 32 37 37 35 31 32 41 45 49 52 53 52 49 47 46 47 45 41 39 37 35 32 33 32 32 33 40 44 45 45 43 40 41 39
27 25 18 9 7 12 16 12 17 26 29 38 42 40 37 38 43 48 53 54 54 53 51 51 49 46 44 41 39 38 36 34 34 34 39 44 47 48 47 43 42 41 41
20 21 23 19 11 6 7 12 13 13 24 25 37 39 39 40 42 46 53 57 57 56 55 54 50 47 45 42 39 39 40 39 38 39 39 43 47 47 44 45 44 41 44
14 16 19 23 23 16 10 5 2 7 8 16 22 33 43 43 45 48 52 56 60 60 60 57 53 48 47 44 41 41 43 42 44 43 42 45 45 45 45 46 47 44 42
18 19 21 23 23 21 19 15 15 12 5 4 21 32 42 48 49 50 56 59 62 64 65 61 57 52 51 47 45 44 46 46 48 46 44 46 45 45 43 49 48 45 42
27 26 24 29 33 33 31 28 26 25 23 19 16 21 36 46 54 56 60 64 65 68 70 66 62 57 55 52 49 48 51 52 50 47 44 42 47 45 47 48 48 46 43
41 39 42 43 43 44 45 42 39 37 36 33 33 31 29 38 52 58 65 69 70 70 73 71 67 63 59 57 54 52 56 57 53 49 47 37 48 47 47 50 49 47 44
57 57 57 58 56 53 52 51 51 46 47 45 44 42 41 41 39 55 65 69 75 76 76 76 75 70 64 61 59 57 61 67 61 55 53 41 46 50 50 52 50 47 45
60 52 47 52 51 47 47 46 48 48 46 49 49 49 48 48 47 46 62 75 76 81 81 80 80 77 71 67 64 62 68 76 65 61 57 49 48 49 48 52 52 50 47
49 36 36 39 39 40 42 47 48 48 49 45 50 51 53 52 53 50 51 60 71 81 87 85 83 85 81 75 72 73 76 82 74 66 61 57 53 52 52 50 52 51 49
54 56 51 42 38 45 49 48 52 50 48 50 46 49 54 55 54 53 50 49 51 68 85 96 92 91 88 83 77 78 80 87 81 74 67 60 61 58 57 57 56 54 52
52 49 42 40 41 43 50 48 49 49 50 54 54 48 51 56 55 56 53 56 57 60 70 91 97 98 91 90 86 84 85 86 91 81 72 65 65 62 61 57 57 56 53
49 44 45 49 52 52 57 61 62 61 61 60 61 54 52 55 56 55 56 57 66 64 53 78 103 103 98 96 95 91 89 88 96 87 78 74 70 63 63 66 64 62 56
50 49 50 52 54 60 61 60 65 66 67 68 67 61 53 53 55 53 57 61 67 76 60 40 86 108 104 98 101 99 98 94 101 97 84 81 75 68 69 76 72 67 60
57 55 48 50 53 57 60 60 62 65 66 70 70 68 65 62 63 62 60 61 62 68 80 54 66 113 113 106 103 107 106 102 101 106 92 88 80 72 72 67 63 66 61
50 33 29 26 28 38 48 54 58 62 68 73 76 76 74 67 61 62 66 65 61 62 64 69 45 102 109 110 106 108 111 111 105 109 105 95 89 80 79 77 69 64 63
4 14 21 27 33 37 41 48 57 65 74 75 72 66 67 69 67 65 66 69 69 67 63 58 75 67 107 118 103 103 105 108 111 113 113 104 97 88 82 82 77 67 65
12 21 30 40 47 51 54 56 62 69 73 76 75 74 70 68 66 65 64 69 72 75 69 62 68 88 87 120 95 92 102 103 115 119 119 113 102 96 86 81 80 79 70
46 51 50 52 55 59 61 64 68 76 83 87 87 85 77 72 70 65 60 66 72 74 70 69 60 66 86 83 97 90 76 86 92 125 128 119 108 102 95 87 81 81 76
57 61 64 65 67 68 67 69 72 75 83 90 93 94 91 82 76 76 74 63 62 65 68 61 66 59 64 56 31 58 36 29 58 94 125 122 113 108 101 92 87 84 79
64 65 65 67 68 70 67 67 69 71 78 85 82 85 84 79 83 84 84 78 73 67 67 62 59 69 56 55 76 44 27 17 36 35 98 117 114 110 108 99 93 90 81
60 62 63 62 63 64 65 65 70 77 80 78 81 84 85 85 85 85 85 83 81 80 78 71 60 57 72 75 83 106 63 50 60 51 58 88 111 117 113 110 99 95 85
66 65 64 63 64 62 62 65 69 75 77 76 84 83 84 78 85 85 87 85 77 76 78 73 70 64 64 69 78 90 92 74 48 49 60 82 86 84 99 102 104 95 82
Wind_Direction_850mb
197 217 222 217 223 231 243 230 209 203 201 196 196 200 204 204 204 207 211 216 220 218 202 193 187 178 186 174 173 180 169 170 172 175 169 170 175 181 172 166 158 150 148
195 205 185 182 178 206 224 225 213 200 208 211 203 202 205 208 208 209 212 216 219 221 213 201 195 190 189 182 181 183 185 183 175 179 178 183 187 184 174 168 162 155 152
199 197 176 145 150 166 202 201 199 206 202 214 224 215 208 209 213 213 214 216 219 220 217 207 202 198 194 193 186 191 197 197 191 190 196 189 183 179 168 166 161 155 151
204 204 195 151 126 118 152 202 204 204 208 207 211 221 225 214 216 218 217 217 218 218 215 211 206 203 199 199 198 198 203 207 204 197 196 181 173 171 169 166 163 162 154
207 205 208 202 157 119 117 155 206 213 212 214 210 212 221 225 222 221 221 219 219 217 214 211 211 206 202 204 202 203 199 203 196 186 179 177 173 171 171 169 168 166 159
204 209 219 214 214 189 124 118 128 199 220 226 226 218 219 223 227 230 225 222 219 217 215 212 212 208 204 206 203 197 192 188 188 186 185 181 178 171 173 172 170 167 165
250 246 248 230 217 217 221 248 180 128 181 217 226 227 229 228 228 231 232 226 221 218 216 214 213 210 206 206 201 194 189 187 186 187 184 181 178 175 176 176 174 175 173
292 284 286 283 275 254 244 262 271 268 250 222 230 233 231 233 235 230 231 230 226 220 217 217 214 212 208 207 202 195 191 187 180 180 180 183 183 181 181 178 179 180 180
310 302 300 302 300 294 283 284 284 281 271 275 273 250 249 241 236 237 232 230 229 225 221 218 218 214 210 207 205 198 192 187 184 182 176 185 187 184 183 180 182 183 184
309 310 306 303 302 303 301 289 283 283 283 279 282 276 263 254 247 239 237 233 228 229 225 222 219 219 213 208 205 200 194 189 188 189 184 190 196 190 190 186 185 183 185
298 300 299 299 298 298 298 299 295 286 284 282 283 282 274 268 258 249 240 237 231 228 229 225 223 221 219 213 206 201 194 192 192 196 190 192 195 196 195 190 188 188 188
299 300 298 296 297 296 295 296 297 297 288 287 283 281 276 269 265 264 243 237 235 229 227 228 225 223 221 215 207 202 199 194 195 194 194 196 201 196 195 195 193 192 191
299 293 296 297 290 292 298 293 293 293 296 286 282 279 276 269 264 261 263 247 244 233 224 225 227 225 220 218 210 203 202 197 198 198 198 201 204 201 198 194 191 187 187
290 293 289 282 287 292 296 294 293 291 290 291 280 275 273 268 261 258 258 252 239 243 227 221 222 226 221 220 216 209 205 200 200 203 202 205 207 204 200 199 196 195 196
290 289 283 281 290 292 294 293 290 293 290 291 286 275 272 269 264 257 250 246 236 237 248 219 222 223 221 221 219 215 210 205 203 205 203 206 204 203 205 198 197 198 199
294 291 290 288 287 287 287 285 287 288 284 285 289 282 274 270 267 259 251 247 243 237 234 240 224 222 221 219 221 217 214 208 204 206 204 204 208 207 208 202 200 201 198
287 284 285 282 281 285 281 279 277 277 279 283 284 283 271 270 266 263 257 246 243 240 241 234 233 226 224 219 223 218 216 211 206 208 205 205 209 220 212 211 205 206 207
283 283 272 268 267 267 268 265 266 269 273 278 279 277 277 273 268 265 258 252 245 247 250 245 235 225 224 219 220 223 218 213 211 210 209 207 210 215 211 209 200 203 205
271 257 245 254 259 251 250 256 260 264 268 272 272 272 274 272 268 266 259 252 250 249 252 260 239 220 219 220 219 225 221 217 212 212 210 210 210 213 209 209 209 208 208
217 269 294 299 300 296 284 272 268 266 267 270 269 268 268 268 265 265 262 254 249 250 248 254 235 233 222 220 215 221 229 224 214 214 211 212 211 212 216 215 218 218 216
356 326 312 303 299 296 293 288 279 275 270 268 267 268 265 264 263 263 261 255 249 250 250 249 254 243 219 216 205 205 214 223 225 214 212 212 211 211 216 218 220 219 217
322 319 311 304 297 292 288 283 279 277 273 271 269 267 264 261 259 257 259 257 251 250 251 250 253 258 235 212 200 207 200 203 206 215 213 210 212 211 213 220 221 218 218
319 315 308 302 295 290 285 282 279 276 272 270 267 267 265 260 254 252 251 252 253 248 249 252 241 247 255 250 214 201 186 193 194 197 205 208 211 213 213 218 219 217 217
313 308 303 297 291 286 283 279 275 273 272 269 271 269 266 262 256 251 250 249 248 248 245 246 244 237 243 236 228 244 184 235 180 182 191 206 212 212 217 213 219 213 214
324 318 312 304 296 290 284 277 273 269 268 269 269 268 266 263 256 249 248 248 247 246 247 245 243 238 243 239 214 217 231 240 221 202 176 192 204 210 210 214 216 212 206
323 320 316 309 302 296 288 280 272 267 266 264 263 262 261 261 261 254 247 243 244 243 243 243 241 237 240 242 237 224 226 223 229 199 189 188 194 198 208 207 212 208 202